www.pogodaiklimat.ru

Погода и климат >> Архив погоды >> Россия >> Камчатский край >> Слаутное


ПОГОДА в Слаутном

  • Прогноз погоды в Слаутном
  • Монитор погоды в Слаутном

АРХИВ ПОГОДЫ в Слаутном

Время (UTC), дата Ветер
(напр.,м/с)
 
Видим.   Явления Облачность Т
(С)
Тd
(С)
f
(%)
Тe
(С)
Тes
(С)
Комфортность P
(гПа)
Po
(гПа)
Тmin
(С)
Tmax
(С)
R
(мм)
R24
(мм)
S
(см)
09 12.07 С 2 10 км дым ясно +22.1 +15.4 66 +26 +26 душно 1005.7 1000.6 +29.5
12 12.07 Ю 2 н/о н/о +14.5 +12.0 85 +14 +14 1007.2 1002.0
15 12.07 Ю 3 н/о н/о +14.5 +12.6 88 +14 +14 1008.4 1003.2
18 12.07 Ю 3 н/о н/о +14.0 +11.2 83 +13 +13 1009.3 1004.0
21 12.07 ЮЗ 4-10
{10}
10 км дым ясно +18.2 +12.0 67 +18 +23 1009.7 1004.5 +13.6
00 13.07 ЮЗ 5
{10}
10 км дым ясно +21.8 +12.2 54 +24 +30 комфорт 1009.0 1003.9
03 13.07 ЮЗ 5 н/о н/о +23.9 +12.6 49 +26 +26 жарко 1007.5 1002.5
06 13.07 ЮЗ 4 10 км дым ясно +24.2 +12.5 48 +26 +29 жарко 1006.3 1001.2
09 13.07 Ю 3 2000 м дым 4/4 600 м
[]
+20.3 +13.9 67 +23 +23 комфорт 1006.2 1001.1 +25.0
12 13.07 Ю 4 4000 м дым 6/5 600 м
[Sc Ac trans Ci fib]
+15.3 +11.8 80 +14 +14 1006.5 1001.3
15 13.07 Ю 3 10 км дым 10/10 600 м
[Sc]
+13.9 +10.3 79 +13 +13 1006.2 1001.0
18 13.07 Ю 3 10 км дым 8/6 600 м
[Sc Ac trans Ci fib]
+14.7 +10.0 73 +14 +14 1006.1 1000.9
21 13.07 Ю 4 10 км дым 5/3 600 м
[Sc Ac trans Ci fib]
+17.1 +11.0 67 +17 +19 1005.9 1000.7 +13.7
00 14.07 ЮЗ 3 10 км дым 3/1 600 м
[Sc Ac trans Ci fib]
+23.5 +12.3 49 +25 +33 комфорт 1004.9 999.9
03 14.07 ЮЗ 3 20 км дым 3/1 600 м
[Sc Ac trans Ci fib]
+27.2 +12.4 40 +29 +35 жарко 1003.2 998.2
06 14.07 З 2 10 км дым 6/4 600 м
[Sc Ac trans Ci fib]
+26.5 +14.6 48 +29 +31 жарко 1002.7 997.7
09 14.07 ЮЗ 1 2000 м дым 5/3 600 м
[Sc Ac trans Ci fib]
+23.8 +16.7 64 +27 +28 жарко 1003.1 998.1 +28.3
12 14.07 Ю 1 н/о н/о +15.2 +13.9 92 +16 +16 1003.9 998.7
15 14.07 Ю 1 н/о н/о +12.8 +11.7 93 +13 +13 1004.4 999.2
18 14.07 Ю 2 10 км дым ясно +14.4 +12.0 85 +14 +15 1004.9 999.7
21 14.07 Ю 3 н/о н/о +18.7 +12.7 68 +20 +20 1005.1 1000.0 +12.7
00 15.07 ЮЗ 4 10 км дым ясно +23.1 +13.2 54 +26 +34 жарко 1004.5 999.5
03 15.07 ЮЗ 3 10 км дым ясно +26.2 +13.9 47 +28 +37 жарко 1002.8 997.8
06 15.07 ЮЗ 4 2000 м дым ясно +25.0 +13.7 49 +27 +30 жарко 1001.8 996.8
09 15.07 ЮЗ 3 10 км дым 4/3 600 м
[Sc Ac trans Ci fib]
+21.0 +13.5 62 +24 +24 комфорт 1002.3 997.2 +26.3
12 15.07 Ю 5 н/о н/о +14.9 +9.5 70 +14 +14 1003.4 998.2
15 15.07 Ю 5 н/о н/о +11.6 +8.8 83 +9 +9 1003.9 998.6
18 15.07 Ю 4
{10}
н/о н/о +11.7 +8.2 79 +10 +10 1004.5 999.2
21 15.07 Ю 5
{11}
10 км дым 8/5 600 м
[Sc Ac trans Ci fib]
+13.5 +8.7 73 +12 +13 1004.5 999.3 +11.0
00 16.07 ЮЗ 6-10
{12}
10 км дым 6/4 50 м
[Sc Ac trans Ci fib]
+18.2 +10.6 61 +18 +20 1004.3 999.2
03 16.07 ЮЗ 5-11
{11}
10 км дым 8/6 600 м
[Sc Ac trans Ci fib]
+18.1 +10.6 62 +18 +19 1004.1 998.9
06 16.07 ЮЗ 4
{11}
10 км дым 10/10 600 м
[Sc]
+18.1 +10.7 62 +18 +18 1004.2 999.0
09 16.07 Ю 4 10 км дым 10/10 600 м
[Sc]
+14.5 +11.1 80 +13 +13 1005.3 1000.1 +19.7
12 16.07 ЮЗ 5 н/о н/о +12.8 +9.9 83 +11 +11 1006.2 1000.9
15 16.07 СЗ 1 н/о н/о +12.5 +11.9 96 +12 +12 1006.7 1001.4
18 16.07 СЗ 1 н/о н/о +11.9 +11.2 95 +12 +12 1007.7 1002.4
21 16.07 С 1 10 км слаб. ливневой дождь 10/10 600 м
[Cb cap]
+13.2 +12.3 94 +13 +13 1008.2 1002.9 +11.8 0.9
00 17.07 Ю 1 10 км слаб. ливневой дождь 10/10 600 м
[Cb cap]
+14.7 +12.3 86 +15 +15 1008.1 1002.9
03 17.07 Ю 3 20 км {ливн. осадки} 10/10 600 м
[Sc]
+15.3 +12.6 84 +15 +15 1007.6 1002.4
06 17.07 Ю 3 10 км 10/10 600 м
[Sc]
+15.0 +11.7 81 +14 +14 1007.3 1002.1
09 17.07 Ю 2 10 км 10/10 600 м
[Sc]
+14.5 +11.8 84 +14 +14 1007.0 1001.7 +15.6 0.5
12 17.07 Ю 4 10 км дым 10/10 600 м
[Sc]
+12.3 +9.8 85 +10 +10 1006.9 1001.6
15 17.07 Ю 4 н/о н/о +11.9 +8.9 82 +10 +10 1006.0 1000.7
18 17.07 Ю 3 н/о н/о +11.1 +10.5 96 +9 +9 1005.5 1000.2
21 17.07 ЮЗ 5
{10}
10 км ливневой дождь 10/10 600 м
[Cb cap]
+11.9 +10.9 94 +9 +9 1005.7 1000.4 +10.8 5
00 18.07 ЮЗ 4 10 км ливневой дождь 10/10 600 м
[Cb cap]
+12.5 +11.2 92 +10 +10 1006.4 1001.1
03 18.07 ЮЗ 4 10 км {ливн. осадки} 10/10 600 м
[Sc]
+15.2 +10.6 74 +14 +14 1007.0 1001.8
06 18.07 Ю 4 50 км 9/8 600 м
[Sc Ac trans Ci fib]
+16.7 +10.2 65 +16 +17 1007.5 1002.3
09 18.07 Ю 6-10
{11}
50 км 9/8 600 м
[Sc Ac trans Ci fib]
+13.3 +9.4 77 +11 +11 1008.3 1003.1 +17.1 1
12 18.07 Ю 5
{10}
20 км 10/10 600 м
[Sc]
+11.0 +8.5 85 +8 +8 1010.3 1005.0
15 18.07 Ю 5
{10}
н/о н/о +10.1 +8.2 88 +7 +7 1010.8 1005.5
18 18.07 Ю 4 н/о н/о +10.5 +8.4 87 +8 +8 1011.3 1006.0
21 18.07 ЮЗ 5 20 км 10/10 600 м
[Sc]
+12.9 +9.0 77 +11 +11 1012.0 1006.7 +9.9
00 19.07 Ю 5 н/о н/о +13.6 +10.1 79 +12 +12 1012.6 1007.3
03 19.07 Ю 5
{10}
20 км 10/10 600 м
[Sc]
+16.3 +11.3 72 +15 +15 1012.5 1007.2
06 19.07 ЮЗ 3
{10}
н/о н/о +16.0 +12.2 78 +16 +16 1012.4 1007.2

 

Местоположение метеостанции Слаутное (Камчатский край, Россия): широта 63.20 долгота 167.80 высота над уровнем моря 44 м.

В архиве по умолчанию представлена погода в Слаутном за последнюю неделю. Архивные данные за месяц целиком и за предыдущие месяцы, начиная с января 2011 года, Вы можете получить, выбрав интересующий диапазон дат из раскрывающегося списка и нажав кнопку "Ввод!".


*Определитесь, кто Вы:
робот инопланетянин человек

Внимание! Время в таблицах - всемирное. Для получения местного времени необходимо прибавить поправку, которая равна 12 ч.

Смотрите также архив погоды в соседних городах и на ближайших метеорологических станциях:

Погода в Каменском (Камчатский край, Россия) (114 км)
Погода в Марково (Чукотка, Россия) (208 км)
Погода в Верхне-Пенжино (Камчатский край, Россия) (210 км)
Погода в Тиличиках (Камчатский край, Россия) (322 км)
Погода в Апуке (Камчатский край, Россия) (322 км)
Погода в Кегали (Магаданская область, Россия) (354 км)
Погода в Танюрере (Чукотка, Россия) (371 км)
Погода в Чемурнауте (Камчатский край, Россия) (372 км)
Погода в Баимке (Чукотка, Россия) (407 км)
Погода в Омолоне (Чукотка, Россия) (419 км)

Пояснения к столбцам:

Ветер - указаны скорость ветра в м/с - средняя за 10 мин, порывы в срок и между сроками (в фигурных скобках) и направление, откуда дует ветер: С - северный, СВ - северо-восточный, В - восточный, ЮВ - юго-восточный, Ю - южный, ЮЗ - юго-западный, З - западный, СЗ - северо-западный.
Видимость - горизонтальная дальность видимости в метрах или километрах. При видимости от 1 до 10 км при отсутствии осадков обычно наблюдается дымка, при ухудшении видимости до 1 км и менее - туман. В сухую погоду видимость может ухудшаться дымом, пылью или мглою.
Явления - указаны атмосферные явления, наблюдавшиеся в срок или в последний час перед сроком; фигурными скобками обозначены явления, наблюдавшиеся между сроками (за 1-3 часа до срока); квадратными скобками обозначены град или гололедные отложения с указанием их диаметра в мм.
Облачность - указаны через наклонную черту общая и нижняя облачность в баллах и высота нижней границы облаков в метрах; квадратными скобками обозначены формы облаков: Ci - перистые, Cs - перисто-слоистые, Cc - перисто-кучевые, Ac - высококучевые, As - высокослоистые, Sc - слоисто-кучевые, Ns - слоисто-дождевые, Cu - кучевые, Cb - кучево-дождевые. Подробнее классификацию облаков см. в Атласе облаков (PDF).
T - Температура воздуха - температура, измеренная на высоте 2 м над землей.
Td - Температура точки росы - температура, при понижении до которой содержащийся в воздухе водяной пар достигнет насыщения.
f - Относительная влажность воздуха - влажноcть воздуха, измеренная на высоте 2 м над землей.
Te - Эффективная температура - температура, которую ощущает одетый по сезону человек в тени. Характеристика душности погоды. При расчете учитывается влияние влажности воздуха и скорости ветра на теплоощущения человека.
Tes - Эффективная температура на солнце - температура, которую ощущает человек, с поправкой на солнечный нагрев. Характеристика знойности погоды. Зависит от высоты солнца над горизонтом, облачности и скорости ветра. Ночью, в пасмурную погоду, а также при ветре 12 м/с и более поправка равна нулю.
P - Атмосферное давление - приведенное к уровню моря атмосферное давление.
Po - Атмосферное давление - измеренное на уровне метеостанции атмосферное давление.
Tmin - Минимальная температура - минимум температуры воздуха на высоте 2 м над землей.
Tmax - Максимальная температура - максимум температуры воздуха на высоте 2 м над землей.
R - Количество осадков - Количество выпавших осадков за период времени, мм. При наведении курсора мыши на число - период времени, за который выпало указанное количество осадков.
R24 - Количество осадков - Количество выпавших осадков за 24 часа, мм.
S - Снежный покров - Высота снежного покрова, см. При наведении курсора мыши на число - состояние снежного покрова и степень покрытия местности в баллах.